| time (UTC) | temp F | wind direction | speed knots | gust knots | rain 1hr in | rain 24hr in | rain mn in | humidity % | barometer mb |
| 20260903121601 | 83 | 0 | 0.0 | 0.0 | 0.00 | 0.00 | 0.00 | 87 | 1014.6 |
| 20260903120058 | 83 | 0 | 0.0 | 1.7 | 0.00 | 0.00 | 0.00 | 87 | 1014.4 |
| 20260903114602 | 83 | 0 | 0.0 | 0.0 | 0.00 | 0.00 | 0.00 | 87 | 1014.4 |
| 20260903113100 | 83 | 0 | 0.0 | 0.0 | 0.00 | 0.00 | 0.00 | 87 | 1014.5 |
| 20260903111608 | 84 | 0 | 0.0 | 0.0 | 0.00 | 0.00 | 0.00 | 86 | 1014.5 |
| 20260903104621 | 84 | 0 | 0.0 | 2.6 | 0.00 | 0.00 | 0.00 | 86 | 1014.2 |
| 20260903103106 | 84 | 0 | 0.0 | 0.0 | 0.00 | 0.00 | 0.00 | 86 | 1014.1 |
| 20260903101601 | 84 | 0 | 0.0 | 0.9 | 0.00 | 0.00 | 0.00 | 86 | 1014.0 |
| 20260903094611 | 84 | 0 | 0.0 | 3.5 | 0.00 | 0.00 | 0.00 | 86 | 1014.0 |
| 20260903093106 | 84 | 0 | 0.0 | 2.6 | 0.00 | 0.00 | 0.00 | 86 | 1014.1 |
| 20260903091603 | 84 | 0 | 0.0 | 4.3 | 0.00 | 0.00 | 0.00 | 86 | 1014.1 |
| 20260903090058 | 84 | 255 | 0.9 | 6.1 | 0.00 | 0.00 | 0.00 | 86 | 1014.1 |
| 20260903084603 | 85 | 260 | 0.0 | 6.1 | 0.00 | 0.00 | 0.00 | 85 | 1014.0 |
| 20260903083107 | 84 | 0 | 0.9 | 6.1 | 0.00 | 0.00 | 0.00 | 85 | 1014.0 |
| 20260903081614 | 84 | 286 | 0.0 | 5.2 | 0.00 | 0.00 | 0.00 | 85 | 1014.0 |
| 20260903074601 | 84 | 0 | 0.9 | 8.7 | 0.00 | 0.00 | 0.00 | 85 | 1013.8 |
| 20260903073107 | 84 | 210 | 0.0 | 5.2 | 0.00 | 0.00 | 0.00 | 86 | 1013.6 |
| 20260903071605 | 84 | 0 | 0.0 | 1.7 | 0.00 | 0.00 | 0.00 | 86 | 1013.7 |
| 20260903064558 | 84 | 0 | 0.0 | 2.6 | 0.00 | 0.00 | 0.00 | 86 | 1014.2 |
| 20260903063108 | 84 | 0 | 0.0 | 1.7 | 0.00 | 0.00 | 0.00 | 86 | 1014.5 |
| 20260903061605 | 84 | 0 | 0.0 | 5.2 | 0.00 | 0.00 | 0.00 | 86 | 1014.6 |
| 20260903060111 | 84 | 0 | 0.0 | 1.7 | 0.00 | 0.00 | 0.00 | 86 | 1014.7 |
| 20260903054607 | 84 | 0 | 0.0 | 1.7 | 0.00 | 0.00 | 0.00 | 86 | 1014.9 |
| 20260903053101 | 84 | 0 | 0.0 | 2.6 | 0.00 | 0.00 | 0.00 | 86 | 1014.7 |
| 20260903051559 | 84 | 0 | 0.0 | 1.7 | 0.00 | 0.00 | 0.00 | 85 | 1014.9 |
| 20260903044600 | 84 | 170 | 0.0 | 0.9 | 0.00 | 0.00 | 0.00 | 85 | 1014.8 |
| 20260903043101 | 84 | 0 | 0.0 | 4.3 | 0.00 | 0.00 | 0.00 | 85 | 1015.1 |
| 20260903041604 | 85 | 0 | 0.0 | 2.6 | 0.00 | 0.00 | 0.00 | 86 | 1015.2 |
| 20260903040110 | 85 | 0 | 0.0 | 1.7 | 0.00 | 0.00 | 0.00 | 86 | 1015.4 |
| 20260903034607 | 85 | 0 | 0.0 | 1.7 | 0.00 | 0.00 | 0.00 | 85 | 1015.1 |
| 20260903033105 | 85 | 0 | 0.0 | 1.7 | 0.00 | 0.00 | 0.00 | 85 | 1015.1 |
| 20260903031611 | 85 | 0 | 0.0 | 1.7 | 0.00 | 0.00 | 0.00 | 85 | 1015.1 |
| 20260903030134 | 85 | 0 | 0.0 | 1.7 | 0.00 | 0.00 | 0.00 | 85 | 1015.1 |
| 20260903024603 | 85 | 0 | 0.0 | 3.5 | 0.00 | 0.00 | 0.00 | 85 | 1014.8 |
| 20260903023115 | 85 | 0 | 0.0 | 3.5 | 0.00 | 0.00 | 0.00 | 85 | 1014.6 |
| 20260903021601 | 85 | 0 | 0.0 | 2.6 | 0.00 | 0.00 | 0.00 | 85 | 1014.4 |
| 20260903020108 | 85 | 0 | 0.0 | 3.5 | 0.00 | 0.00 | 0.00 | 85 | 1014.1 |
| 20260903014620 | 85 | 209 | 0.0 | 5.2 | 0.00 | 0.00 | 0.00 | 85 | 1014.0 |
| 20260903013059 | 85 | 0 | 0.0 | 2.6 | 0.00 | 0.00 | 0.00 | 86 | 1014.3 |
| 20260903011605 | 85 | 0 | 0.0 | 3.5 | 0.00 | 0.00 | 0.00 | 85 | 1013.9 |
| 20260903010105 | 86 | 194 | 0.0 | 2.6 | 0.00 | 0.00 | 0.00 | 84 | 1013.4 |
| 20260903004605 | 86 | 0 | 0.0 | 6.1 | 0.00 | 0.00 | 0.00 | 84 | 1013.7 |
| 20260903003059 | 86 | 0 | 0.0 | 1.7 | 0.00 | 0.00 | 0.00 | 83 | 1014.0 |
| 20260903001609 | 87 | 0 | 0.0 | 3.5 | 0.00 | 0.00 | 0.00 | 82 | 1013.4 |
| 20260903000110 | 87 | 0 | 0.9 | 7.0 | 0.00 | 0.00 | 0.00 | 80 | 1012.8 |
| 20260902234559 | 88 | 167 | 0.0 | 6.1 | 0.00 | 0.00 | 0.00 | 79 | 1012.9 |
| 20260902233105 | 89 | 0 | 0.0 | 7.0 | 0.00 | 0.00 | 0.00 | 79 | 1013.1 |
| 20260902231603 | 90 | 208 | 0.9 | 7.0 | 0.00 | 0.00 | 0.00 | 76 | 1013.0 |
| 20260902230106 | 91 | 192 | 0.0 | 4.3 | 0.00 | 0.00 | 0.00 | 74 | 1013.0 |
| 20260902224601 | 92 | 186 | 0.9 | 5.2 | 0.00 | 0.04 | 0.00 | 72 | 1012.9 |
| 20260902223101 | 93 | 178 | 0.0 | 7.8 | 0.00 | 0.04 | 0.00 | 71 | 1013.1 |
| 20260902221618 | 92 | 196 | 0.0 | 7.0 | 0.00 | 0.04 | 0.00 | 74 | 1013.3 |
| 20260902220108 | 93 | 0 | 0.0 | 4.3 | 0.00 | 0.04 | 0.00 | 74 | 1013.1 |
| 20260902214601 | 93 | 192 | 0.0 | 6.1 | 0.00 | 0.11 | 0.00 | 73 | 1013.2 |
| 20260902213059 | 94 | 261 | 0.0 | 5.2 | 0.00 | 0.11 | 0.00 | 71 | 1013.3 |
| 20260902211601 | 94 | 0 | 0.0 | 5.2 | 0.00 | 0.11 | 0.00 | 72 | 1013.3 |
| 20260902210103 | 92 | 189 | 0.0 | 5.2 | 0.00 | 0.11 | 0.00 | 72 | 1013.4 |
| 20260902204616 | 92 | 0 | 0.0 | 3.5 | 0.00 | 0.11 | 0.00 | 72 | 1013.5 |
| 20260902203103 | 92 | 178 | 0.9 | 6.1 | 0.00 | 0.11 | 0.00 | 74 | 1013.6 |
| 20260902201603 | 93 | 0 | 0.0 | 6.1 | 0.00 | 0.11 | 0.00 | 74 | 1013.7 |
| 20260902200106 | 94 | 0 | 0.9 | 4.3 | 0.00 | 0.11 | 0.00 | 72 | 1014.0 |
| 20260902194625 | 95 | 182 | 0.9 | 6.1 | 0.00 | 0.16 | 0.00 | 62 | 1014.2 |
| 20260902193104 | 95 | 0 | 0.0 | 6.1 | 0.00 | 0.16 | 0.00 | 64 | 1014.2 |
| 20260902191608 | 94 | 252 | 0.0 | 5.2 | 0.00 | 0.16 | 0.00 | 67 | 1014.2 |
| 20260902190106 | 93 | 0 | 0.9 | 5.2 | 0.00 | 0.16 | 0.00 | 66 | 1014.3 |
| 20260902184605 | 93 | 253 | 1.7 | 5.2 | 0.00 | 0.16 | 0.00 | 67 | 1014.4 |
| 20260902183139 | 92 | 267 | 1.7 | 7.0 | 0.00 | 0.16 | 0.00 | 71 | 1014.6 |
| 20260902181610 | 92 | 0 | 0.0 | 4.3 | 0.00 | 0.16 | 0.00 | 74 | 1014.8 |
| 20260902180106 | 91 | 0 | 1.7 | 7.0 | 0.00 | 0.16 | 0.00 | 74 | 1015.1 |
| 20260902174606 | 91 | 274 | 0.9 | 6.1 | 0.00 | 0.16 | 0.00 | 74 | 1015.4 |
| 20260902173103 | 91 | 0 | 0.0 | 7.0 | 0.00 | 0.16 | 0.00 | 76 | 1015.5 |
| 20260902171626 | 90 | 257 | 1.7 | 7.0 | 0.00 | 0.16 | 0.00 | 77 | 1015.7 |
| 20260902170106 | 89 | 0 | 2.6 | 8.7 | 0.00 | 0.16 | 0.00 | 79 | 1015.8 |
| 20260902164633 | 88 | 236 | 0.9 | 5.2 | 0.00 | 0.16 | 0.00 | 79 | 1016.2 |
| 20260902163102 | 87 | 0 | 1.7 | 7.0 | 0.00 | 0.16 | 0.00 | 83 | 1016.2 |
| 20260902161607 | 86 | 0 | 0.9 | 3.5 | 0.00 | 0.16 | 0.00 | 84 | 1016.4 |
| 20260902160111 | 86 | 0 | 0.9 | 6.1 | 0.00 | 0.16 | 0.00 | 85 | 1016.4 |
| 20260902154609 | 85 | 0 | 0.0 | 3.5 | 0.00 | 0.16 | 0.00 | 86 | 1016.2 |
| 20260902153104 | 84 | 0 | 0.0 | 5.2 | 0.00 | 0.16 | 0.00 | 86 | 1016.0 |
| 20260902151603 | 84 | 0 | 0.0 | 5.2 | 0.00 | 0.16 | 0.00 | 86 | 1016.1 |
| 20260902144609 | 83 | 0 | 0.0 | 3.5 | 0.00 | 0.16 | 0.00 | 87 | 1015.7 |
| 20260902143058 | 82 | 0 | 0.0 | 2.6 | 0.00 | 0.16 | 0.00 | 86 | 1015.7 |
| 20260902141600 | 82 | 0 | 0.0 | 2.6 | 0.00 | 0.16 | 0.00 | 86 | 1015.7 |
| 20260902134605 | 81 | 0 | 0.0 | 1.7 | 0.00 | 0.16 | 0.00 | 85 | 1015.5 |
| 20260902133107 | 81 | 0 | 0.0 | 0.0 | 0.00 | 0.16 | 0.00 | 85 | 1015.6 |
| 20260902131610 | 81 | 222 | 0.0 | 1.7 | 0.00 | 0.16 | 0.00 | 84 | 1015.6 |
| 20260902130113 | 81 | 0 | 0.0 | 3.5 | 0.00 | 0.16 | 0.00 | 83 | 1015.4 |
| 20260902124601 | 81 | 0 | 0.9 | 4.3 | 0.00 | 0.16 | 0.00 | 84 | 1015.2 |
| 20260902123102 | 82 | 261 | 1.7 | 8.7 | 0.00 | 0.16 | 0.00 | 87 | 1014.7 |
| 20260902123033 | 82 | 264 | 1.7 | 7.8 | 0.00 | 0.16 | 0.00 | 87 | 1014.5 |
| 20260902123006 | 82 | 258 | 1.7 | 7.8 | 0.00 | 0.16 | 0.00 | 87 | 1014.4 |